Regional Weather Roundup
Issued by NWS

Home | Current Version | Previous Version | Text Only | Print | Product List | Glossary On
Versions: 1 2 3 4 5 6 7 8 9 10 11 12 13 14 15 16 17 18 19 20 21 22 23 24 25 26 27 28
000
ASUS45 KREV 271010
RWRNV
NEVADA REGIONAL WEATHER ROUNDUP
NATIONAL WEATHER SERVICE RENO NV
300 AM PDT SAT AUG 27 2016

NOTE: "FAIR" INDICATES FEW OR NO CLOUDS BELOW 12,000 FEET WITH NO
SIGNIFICANT WEATHER AND/OR OBSTRUCTIONS TO VISIBILITY.

NVZ001-003-004-271100-
WESTERN NEVADA

CITY           SKY/WX    TMP DP  RH WIND       PRES   REMARKS
RENO           FAIR      61  33  35 S3        30.08R
CARSON CITY    FAIR      55  32  41 CALM      30.11R
MINDEN         FAIR      50  32  50 CALM      30.11R
PYRAMID LAKE     N/A     73 N/A N/A S6          N/A
FALLON         FAIR      61  33  35 SW9       30.00S
LOVELOCK       FAIR      66  21  18 NE13      29.99R
$$

NVZ002-CAZ072-073-271100-
NORTHERN AND CENTRAL SIERRA

CITY           SKY/WX    TMP DP  RH WIND       PRES   REMARKS
S. LAKE TAHOE  FAIR      43  33  68 S3        30.20S
TRUCKEE        FAIR      39  32  75 CALM      30.20S
SQUAW VLY 8000 NOT AVBL
MAMMOTH LAKES  FAIR      47  32  55 CALM      30.24R
BRIDGEPORT       N/A     42  24  49 CALM      30.21S
$$

NVZ030-031-036-271100-
NORTHERN NEVADA

CITY           SKY/WX    TMP DP  RH WIND       PRES   REMARKS
ELKO           FAIR      46  24  42 CALM      30.09R
WINNEMUCCA     FAIR      45  19  35 CALM      30.02R
WENDOVER       FAIR      61  30  31 CALM      30.03S
$$

NVZ035-037-271100-
CENTRAL NEVADA

CITY           SKY/WX    TMP DP  RH WIND       PRES   REMARKS
ELY            FAIR      51  34  52 SW12      30.16S
EUREKA           N/A     47  21  35 S7        30.12S
$$

NVZ013-014-271100-
SOUTH CENTRAL NEVADA

CITY           SKY/WX    TMP DP  RH WIND       PRES   REMARKS
TONOPAH        FAIR      64  25  22 N9        30.09R
$$

NVZ017-020-022-271100-
SOUTHERN NEVADA

CITY           SKY/WX    TMP DP  RH WIND       PRES   REMARKS
LAS VEGAS      FAIR      79  49  34 E18       29.93R
N. LAS VEGAS   MOCLDY    79  49  34 E14G31    29.94R
NELLIS AFB     DRIZZLE   80  57  44 NE25      29.95R
HENDERSON      FAIR      74  53  48 SE13      29.96R
MERCURY        FAIR      75  47  36 N5        29.96R
$$




USA.gov is the U.S. government's official web portal to all federal, state and local government web resources and services.